Weather History for PHNY - March, 2014

Change the Weather History Date:

Friday, March 21, 2014

  Actual Average Record
Temperature  
Mean Temperature 70 °F -  
Max Temperature 75 °F 77 °F 82 °F (1993)
Min Temperature 65 °F 59 °F 56 °F (1981)
Cooling Degree Days 5    
Growing Degree Days 20 (Base 50)    
Moisture  
Dew Point 65 °F    
Average Humidity 87    
Maximum Humidity 100    
Minimum Humidity 69    
Precipitation  
Precipitation 0.00 in - - ()
Sea Level Pressure  
Sea Level Pressure 30.04 in    
Wind  
Wind Speed 21 mph (NE)    
Max Wind Speed 29 mph    
Max Gust Speed 34 mph    
Visibility 10 miles    
Events Rain    
Averages and records for this station are not official NWS values.
T = Trace of Precipitation, MM = Missing Value Source: NWS Daily Summary

Daily Weather History Graph

Daily Weather History Graph

Search for Another Location

Airport or City:

Trip Planner

Search our weather history database for the weather conditions in past years. The results will help you decide how hot, cold, wet, or windy it might be!

Date:

Astronomy

Mar. 21, 2014 Rise Set
Actual Time 6:30 AM HST 6:39 PM HST
Civil Twilight 6:08 AM HST 7:01 PM HST
Nautical Twilight 5:42 AM HST 7:27 PM HST
Astronomical Twilight 5:17 AM HST 7:52 PM HST
Moon 11:34 PM HST (3/21) 10:06 AM HST (3/21)
Length of Visible Light 12h 52m
Length of Day
12h 08m
Waning Gibbous, 73% of the Moon is Illuminated
Mar 21
Waning Gibbous
Mar 23
Last Quarter
Mar 30
New
Apr 6
First Quarter
Apr 14
Full

Hourly Weather History & Observations

Time (HST) Temp. Dew Point Humidity Pressure Visibility Wind Dir Wind Speed Gust Speed Precip Events Conditions
4:56 AM 66.9 °F 63.9 °F 90% 29.97 in 10.0 mi NE 19.6 mph 25.3 mph N/A   Clear
5:55 AM 66.2 °F 64.4 °F 94% 30.05 in 10.0 mi NE 17.3 mph - N/A   Scattered Clouds
5:56 AM 66.9 °F 64.9 °F 93% 30.00 in 10.0 mi NE 20.7 mph 28.8 mph N/A   Partly Cloudy
6:50 AM 66.2 °F 64.4 °F 94% 30.06 in 10.0 mi NE 18.4 mph - N/A   Scattered Clouds
6:56 AM 66.9 °F 64.9 °F 93% 30.01 in 10.0 mi NE 23.0 mph 26.5 mph N/A   Clear
7:55 AM 69.8 °F 64.4 °F 83% 30.07 in 10.0 mi NNE 20.7 mph - N/A   Scattered Clouds
7:56 AM 69.8 °F 64.4 °F 83% 30.07 in 10.0 mi NNE 21.9 mph 27.6 mph N/A   Scattered Clouds
8:50 AM 71.6 °F 64.4 °F 78% 30.08 in 10.0 mi NNE 19.6 mph - N/A   Scattered Clouds
8:56 AM 72.9 °F 64.9 °F 76% 30.03 in 10.0 mi NNE 17.3 mph 25.3 mph N/A   Clear
9:50 AM 73.4 °F 64.4 °F 73% 30.09 in 10.0 mi NE 17.3 mph - N/A   Mostly Cloudy
9:56 AM 72.9 °F 64.9 °F 76% 30.04 in 10.0 mi NE 23.0 mph - N/A   Clear
10:50 AM 75.2 °F 64.4 °F 69% 30.08 in 10.0 mi NE 23.0 mph - N/A   Mostly Cloudy
10:56 AM 74.8 °F 64.9 °F 71% 30.02 in 10.0 mi NE 26.5 mph 34.5 mph N/A   Clear
11:56 AM 73.9 °F 63.9 °F 71% 30.02 in 10.0 mi NE 24.2 mph 28.8 mph N/A   Mostly Cloudy
12:56 PM 70.9 °F 64.9 °F 81% 30.01 in 10.0 mi NE 10.4 mph 26.5 mph N/A   Overcast
1:50 PM 73.4 °F 64.4 °F 73% 30.04 in 10.0 mi NE 25.3 mph - N/A   Mostly Cloudy
1:56 PM 75.2 °F 64.4 °F 69% 30.04 in 9.0 mi NE 23.0 mph 33.4 mph N/A   Mostly Cloudy
2:50 PM 73.4 °F 64.4 °F 73% 30.02 in 10.0 mi NNE 23.0 mph - N/A   Mostly Cloudy
2:56 PM 73.9 °F 64.9 °F 73% 29.96 in 10.0 mi NE 28.8 mph 34.5 mph N/A   Mostly Cloudy
3:56 PM 72.9 °F 63.9 °F 73% 29.96 in 10.0 mi NE 28.8 mph 32.2 mph N/A   Mostly Cloudy
4:56 PM 71.6 °F 64.4 °F 78% 30.02 in 10.0 mi NE 25.3 mph 32.2 mph N/A   Overcast
5:15 PM 69.8 °F 64.4 °F 83% 30.03 in 10.0 mi NE 24.2 mph 28.8 mph N/A   Mostly Cloudy
5:27 PM 69.8 °F 66.2 °F 88% 30.03 in 10.0 mi ENE 27.6 mph 33.4 mph N/A   Overcast
5:50 PM 68.0 °F 66.2 °F 94% 30.04 in 10.0 mi NE 24.2 mph - N/A   Mostly Cloudy
5:56 PM 68.0 °F 66.9 °F 96% 30.00 in 10.0 mi NE 25.3 mph 29.9 mph N/A   Overcast
6:50 PM 66.2 °F 64.4 °F 94% 30.07 in 10.0 mi NE 23.0 mph - N/A   Overcast
6:56 PM 66.9 °F 66.9 °F 100% 30.03 in 10.0 mi NE 23.0 mph - N/A   Overcast
7:29 PM 66.2 °F 66.2 °F 100% 30.08 in 10.0 mi NE 25.3 mph 29.9 mph N/A   Mostly Cloudy
7:39 PM 66.2 °F 66.2 °F 100% 30.09 in 10.0 mi NE 20.7 mph - N/A   Mostly Cloudy
7:50 PM 66.2 °F 64.4 °F 94% 30.09 in 10.0 mi NE 17.3 mph - N/A Rain Light Rain
7:56 PM 66.2 °F 66.2 °F 100% 30.09 in 10.0 mi NE 19.6 mph - N/A   Overcast
8:42 PM 66.2 °F 66.2 °F 100% 30.09 in 10.0 mi NE 21.9 mph 27.6 mph N/A   Mostly Cloudy
8:56 PM 65.8 °F 65.8 °F 100% 30.05 in 10.0 mi NE 20.7 mph 25.3 mph N/A   Mostly Cloudy
9:30 PM 66.2 °F 66.2 °F 100% 30.10 in 10.0 mi NE 21.9 mph - N/A   Mostly Cloudy
9:56 PM 66.9 °F 66.9 °F 100% 30.05 in 10.0 mi NE 23.0 mph 26.5 mph N/A   Mostly Cloudy
10:56 PM 68.0 °F 66.2 °F 94% 30.11 in 10.0 mi NNE 21.9 mph 27.6 mph N/A   Mostly Cloudy
11:56 PM 66.9 °F 65.8 °F 96% 30.05 in 10.0 mi NE 18.4 mph 25.3 mph N/A   Scattered Clouds